Other Surface Observations
Issued by NWS Charleston, SC

Home | Current Version | Previous Version | Text Only | Print | Product List | Glossary On
Versions: 1 2 3 4 5 6 7 8 9 10 11 12 13 14 15 16 17 18 19 20 21 22 23 24 25 26 27 28 29 30 31 32 33 34 35 36 37 38 39 40 41 42 43 44 45 46 47 48 49 50
000
SXUS52 KCHS 311025
OSOCHS

MARINE OBSERVATIONS
NATIONAL WEATHER SERVICE CHARLESTON SC
600 AM EDT SUN AUG 31 2014

...DOWNTOWN CHARLESTON AND HARBOR...

CITY           SKY/WX    TMP DP  RH WIND       PRES   REMARKS
WATERFRONT PRK   N/A     82 N/A N/A SE3         N/A
FORT JOHNSON   NOT AVBL

...LAKE MOULTRIE...

CITY           SKY/WX    TMP DP  RH WIND       PRES   REMARKS
PINOPOLIS        N/A     77  73  88 SE2       30.07R

...LAKE AND SUPPLEMENTAL COASTAL OBSERVATIONS...

STATION/POSITION TIME  TEMP    WIND        PRES    WAVE   SWELL
                       AIR SEA DIR/SP/G            HT/PER HT/PER/DIR
                 (UTC) (F)     (DEG/KT/KT) (MB)    (FT/S) (FT/S/D)
FORT PULASKI     1000   80     250/  3/  4 1020.3R
SAPELO ISLAND    1000   80     240/ 10     1020.0S
UPR LAKE MARION  NOT AVBL
WINYAH BAY       1000   80     240/  2     1020.0S
LAKE MURRAY      0900   78     190/  6/  9 1020.7R
ACE BASIN NERRS  1000   76        CALM     1020.0S


...C-MAN AND BUOY OBSERVATIONS...

STATION/POSITION TIME  TEMP    WIND        PRES    WAVE   SWELL
                       AIR SEA DIR/SP/G            HT/PER HT/PER/DIR
                 (UTC) (F)     (DEG/KT/KT) (MB)    (FT/S) (FT/S/D)
BUOY 41004       1000   82 83  210/  6/  6 1019.8R   3/10   3/10
BUOY 41008       1000   83 84  240/ 10/ 12 1019.9R   2/ 8   2/110/ 8
FOLLY BEACH CMAN 1000   81     200/  4/  5 1020.9R
CAPERS NS BUOY   0900   80     250/  4/  6   N/A
FRIPP NS BUOY    NOT AVBL
5E ST. MARYS GA  1000      84                N/A     2/10   2/110/11
FRYING PAN BUOY  NOT AVBL
BUOY 41025       1000   80     180/ 10/ 12 1021.6R   3/10   3/120/10
CAPE LOOKOUT NC  1000   80     170/  6/  6 1021.5R
BUOY 41002       0912   81 83  170/  6/  8 1022.8R   3/ 9   3/130/ 9
BUOY 41010       1000   83 83  120/  6/  8 1020.9R   3/10   3/110/10
BUOY 41012       NOT AVBL
ST AUGUSTINE FL  1000   77      CALM  /  1 1020.7R


$$



USA.gov is the U.S. government's official web portal to all federal, state and local government web resources and services.